Year,Month,Day,Hour,Minute,Value (Times are PST for temperature in C)
2017,02,14,00,00,0.60
2017,02,14,00,01,0.60
2017,02,14,00,02,0.60
2017,02,14,00,03,0.60
2017,02,14,00,04,0.60
2017,02,14,00,05,0.60
2017,02,14,00,06,0.60
2017,02,14,00,07,0.60
2017,02,14,00,08,0.60
2017,02,14,00,09,0.70
2017,02,14,00,10,0.70
2017,02,14,00,11,0.70
2017,02,14,00,12,0.60
2017,02,14,00,13,0.70
2017,02,14,00,14,0.70
2017,02,14,00,15,0.70
2017,02,14,00,16,0.70
2017,02,14,00,17,0.80
2017,02,14,00,18,0.80
2017,02,14,00,19,0.80
2017,02,14,00,20,0.80
2017,02,14,00,21,0.90
2017,02,14,00,22,0.90
2017,02,14,00,23,0.90
2017,02,14,00,24,0.90
2017,02,14,00,25,0.90
2017,02,14,00,26,0.90
2017,02,14,00,27,0.80
2017,02,14,00,28,0.80
2017,02,14,00,29,0.70
2017,02,14,00,30,0.80
2017,02,14,00,31,0.70
2017,02,14,00,32,0.70
2017,02,14,00,33,0.80
2017,02,14,00,34,0.80
2017,02,14,00,35,0.80
2017,02,14,00,36,0.80
2017,02,14,00,37,0.80
2017,02,14,00,38,0.80
2017,02,14,00,39,0.80
2017,02,14,00,40,0.80
2017,02,14,00,41,0.70
2017,02,14,00,42,0.70
2017,02,14,00,43,0.70
2017,02,14,00,44,0.60
2017,02,14,00,45,0.60
2017,02,14,00,46,0.50
2017,02,14,00,47,0.50
2017,02,14,00,48,0.50
2017,02,14,00,49,0.50
2017,02,14,00,50,0.50
2017,02,14,00,51,0.60
2017,02,14,00,52,0.60
2017,02,14,00,53,0.60
2017,02,14,00,54,0.60
2017,02,14,00,55,0.60
2017,02,14,00,56,0.60
2017,02,14,00,57,0.60
2017,02,14,00,58,0.60
2017,02,14,00,59,0.60
2017,02,14,01,00,0.60
2017,02,14,01,01,0.60
2017,02,14,01,02,0.60
2017,02,14,01,03,0.60
2017,02,14,01,04,0.60
2017,02,14,01,05,0.60
2017,02,14,01,06,0.60
2017,02,14,01,07,0.60
2017,02,14,01,08,0.60
2017,02,14,01,09,0.60
2017,02,14,01,10,0.60
2017,02,14,01,11,0.60
2017,02,14,01,12,0.60
2017,02,14,01,13,0.60
2017,02,14,01,14,0.60
2017,02,14,01,15,0.60
2017,02,14,01,16,0.70
2017,02,14,01,17,0.70
2017,02,14,01,18,0.70
2017,02,14,01,19,0.60
2017,02,14,01,20,0.60
2017,02,14,01,21,0.60
2017,02,14,01,22,0.60
2017,02,14,01,23,0.50
2017,02,14,01,24,0.50
2017,02,14,01,25,0.40
2017,02,14,01,26,0.40
2017,02,14,01,27,0.30
2017,02,14,01,28,0.30
2017,02,14,01,29,0.30
2017,02,14,01,30,0.20
2017,02,14,01,31,0.20
2017,02,14,01,32,0.20
2017,02,14,01,33,0.20
2017,02,14,01,34,0.20
2017,02,14,01,35,0.20
2017,02,14,01,36,0.20
2017,02,14,01,37,0.20
2017,02,14,01,38,0.20
2017,02,14,01,39,0.30
2017,02,14,01,40,0.30
2017,02,14,01,41,0.30
2017,02,14,01,42,0.30
2017,02,14,01,43,0.30
2017,02,14,01,44,0.30
2017,02,14,01,45,0.30
2017,02,14,01,46,0.30
2017,02,14,01,47,0.30
2017,02,14,01,48,0.30
2017,02,14,01,49,0.30
2017,02,14,01,50,0.30
2017,02,14,01,51,0.30
2017,02,14,01,52,0.30
2017,02,14,01,53,0.30
2017,02,14,01,54,0.30
2017,02,14,01,55,0.30
2017,02,14,01,56,0.30
2017,02,14,01,57,0.30
2017,02,14,01,58,0.40
2017,02,14,01,59,0.40
2017,02,14,02,00,0.40
2017,02,14,02,01,0.50
2017,02,14,02,02,0.50
2017,02,14,02,03,0.60
2017,02,14,02,04,0.60
2017,02,14,02,05,0.60
2017,02,14,02,06,0.70
2017,02,14,02,07,0.70
2017,02,14,02,08,0.70
2017,02,14,02,09,0.70
2017,02,14,02,10,0.70
2017,02,14,02,11,0.70
2017,02,14,02,12,0.70
2017,02,14,02,13,0.70
2017,02,14,02,14,0.70
2017,02,14,02,15,0.80
2017,02,14,02,16,0.80
2017,02,14,02,17,0.70
2017,02,14,02,18,0.70
2017,02,14,02,19,0.80
2017,02,14,02,20,0.70
2017,02,14,02,21,0.70
2017,02,14,02,22,0.70
2017,02,14,02,23,0.70
2017,02,14,02,24,0.70
2017,02,14,02,25,0.60
2017,02,14,02,26,0.60
2017,02,14,02,27,0.60
2017,02,14,02,28,0.60
2017,02,14,02,29,0.60
2017,02,14,02,30,0.50
2017,02,14,02,31,0.60
2017,02,14,02,32,0.60
2017,02,14,02,33,0.60
2017,02,14,02,34,0.60
2017,02,14,02,35,0.50
2017,02,14,02,36,0.50
2017,02,14,02,37,0.40
2017,02,14,02,38,0.40
2017,02,14,02,39,0.40
2017,02,14,02,40,0.30
2017,02,14,02,41,0.30
2017,02,14,02,42,0.30
2017,02,14,02,43,0.30
2017,02,14,02,44,0.30
2017,02,14,02,45,0.30
2017,02,14,02,46,0.30
2017,02,14,02,47,0.40
2017,02,14,02,48,0.40
2017,02,14,02,49,0.40
2017,02,14,02,50,0.40
2017,02,14,02,51,0.40
2017,02,14,02,52,0.40
2017,02,14,02,53,0.40
2017,02,14,02,54,0.40
2017,02,14,02,55,0.40
2017,02,14,02,56,0.50
2017,02,14,02,57,0.50
2017,02,14,02,58,0.50
2017,02,14,02,59,0.60
2017,02,14,03,00,0.60
2017,02,14,03,01,0.60
2017,02,14,03,02,0.70
2017,02,14,03,03,0.80
2017,02,14,03,04,0.80
2017,02,14,03,05,0.90
2017,02,14,03,06,0.90
2017,02,14,03,07,0.90
2017,02,14,03,08,0.90
2017,02,14,03,09,0.90
2017,02,14,03,10,0.90
2017,02,14,03,11,0.80
2017,02,14,03,12,0.70
2017,02,14,03,13,0.70
2017,02,14,03,14,0.70
2017,02,14,03,15,0.70
2017,02,14,03,16,0.70
2017,02,14,03,17,0.60
2017,02,14,03,18,0.60
2017,02,14,03,19,0.60
2017,02,14,03,20,0.60
2017,02,14,03,21,0.60
2017,02,14,03,22,0.60
2017,02,14,03,23,0.60
2017,02,14,03,24,0.60
2017,02,14,03,25,0.60
2017,02,14,03,26,0.60
2017,02,14,03,27,0.60
2017,02,14,03,28,0.60
2017,02,14,03,29,0.50
2017,02,14,03,30,0.50
2017,02,14,03,31,0.50
2017,02,14,03,32,0.60
2017,02,14,03,33,0.70
2017,02,14,03,34,0.70
2017,02,14,03,35,0.70
2017,02,14,03,36,0.70
2017,02,14,03,37,0.70
2017,02,14,03,38,0.70
2017,02,14,03,39,0.70
2017,02,14,03,40,0.70
2017,02,14,03,41,0.70
2017,02,14,03,42,0.70
2017,02,14,03,43,0.70
2017,02,14,03,44,0.60
2017,02,14,03,45,0.60
2017,02,14,03,46,0.70
2017,02,14,03,47,0.70
2017,02,14,03,48,0.70
2017,02,14,03,49,0.80
2017,02,14,03,50,0.80
2017,02,14,03,51,0.90
2017,02,14,03,52,1.00
2017,02,14,03,53,0.90
2017,02,14,03,54,0.90
2017,02,14,03,55,0.80
2017,02,14,03,56,0.80
2017,02,14,03,57,0.80
2017,02,14,03,58,0.80
2017,02,14,03,59,0.80
2017,02,14,04,00,0.80
2017,02,14,04,01,0.80
2017,02,14,04,02,0.80
2017,02,14,04,03,0.80
2017,02,14,04,04,0.80
2017,02,14,04,05,0.90
2017,02,14,04,06,0.80
2017,02,14,04,07,0.80
2017,02,14,04,08,0.80
2017,02,14,04,09,0.80
2017,02,14,04,10,0.90
2017,02,14,04,11,0.90
2017,02,14,04,12,0.90
2017,02,14,04,13,0.90
2017,02,14,04,14,0.90
2017,02,14,04,15,1.00
2017,02,14,04,16,1.00
2017,02,14,04,17,1.10
2017,02,14,04,18,1.10
2017,02,14,04,19,1.10
2017,02,14,04,20,1.10
2017,02,14,04,21,1.10
2017,02,14,04,22,1.00
2017,02,14,04,23,0.90
2017,02,14,04,24,0.80
2017,02,14,04,25,0.70
2017,02,14,04,26,0.60
2017,02,14,04,27,0.60
2017,02,14,04,28,0.50
2017,02,14,04,29,0.50
2017,02,14,04,30,0.40
2017,02,14,04,31,0.40
2017,02,14,04,32,0.30
2017,02,14,04,33,0.40
2017,02,14,04,34,0.50
2017,02,14,04,35,0.60
2017,02,14,04,36,0.70
2017,02,14,04,37,0.80
2017,02,14,04,38,0.80
2017,02,14,04,39,0.80
2017,02,14,04,40,0.80
2017,02,14,04,41,0.80
2017,02,14,04,42,0.80
2017,02,14,04,43,0.70
2017,02,14,04,44,0.70
2017,02,14,04,45,0.60
2017,02,14,04,46,0.60
2017,02,14,04,47,0.50
2017,02,14,04,48,0.50
2017,02,14,04,49,0.40
2017,02,14,04,50,0.40
2017,02,14,04,51,0.40
2017,02,14,04,52,0.40
2017,02,14,04,53,0.50
2017,02,14,04,54,0.60
2017,02,14,04,55,0.70
2017,02,14,04,56,0.70
2017,02,14,04,57,0.70
2017,02,14,04,58,0.80
2017,02,14,04,59,0.80
2017,02,14,05,00,0.80
2017,02,14,05,01,0.70
2017,02,14,05,02,0.70
2017,02,14,05,03,0.60
2017,02,14,05,04,0.60
2017,02,14,05,05,0.60
2017,02,14,05,06,0.50
2017,02,14,05,07,0.60
2017,02,14,05,08,0.60
2017,02,14,05,09,0.70
2017,02,14,05,10,0.70
2017,02,14,05,11,0.70
2017,02,14,05,12,0.70
2017,02,14,05,13,0.70
2017,02,14,05,14,0.70
2017,02,14,05,15,0.70
2017,02,14,05,16,0.70
2017,02,14,05,17,0.60
2017,02,14,05,18,0.60
2017,02,14,05,19,0.50
2017,02,14,05,20,0.50
2017,02,14,05,21,0.40
2017,02,14,05,22,0.40
2017,02,14,05,23,0.50
2017,02,14,05,24,0.50
2017,02,14,05,25,0.60
2017,02,14,05,26,0.50
2017,02,14,05,27,0.50
2017,02,14,05,28,0.50
2017,02,14,05,29,0.40
2017,02,14,05,30,0.40
2017,02,14,05,31,0.40
2017,02,14,05,32,0.30
2017,02,14,05,33,0.30
2017,02,14,05,34,0.30
2017,02,14,05,35,0.30
2017,02,14,05,36,0.30
2017,02,14,05,37,0.20
2017,02,14,05,38,0.20
2017,02,14,05,39,0.20
2017,02,14,05,40,0.30
2017,02,14,05,41,0.30
2017,02,14,05,42,0.30
2017,02,14,05,43,0.30
2017,02,14,05,44,0.30
2017,02,14,05,45,0.40
2017,02,14,05,46,0.50
2017,02,14,05,47,0.50
2017,02,14,05,48,0.60
2017,02,14,05,49,0.60
2017,02,14,05,50,0.60
2017,02,14,05,51,0.50
2017,02,14,05,52,0.50
2017,02,14,05,53,0.50
2017,02,14,05,54,0.50
2017,02,14,05,55,0.60
2017,02,14,05,56,0.60
2017,02,14,05,57,0.70
2017,02,14,05,58,0.70
2017,02,14,05,59,0.80
2017,02,14,06,00,0.80
2017,02,14,06,01,0.90
2017,02,14,06,02,0.90
2017,02,14,06,03,0.90
2017,02,14,06,04,0.90
2017,02,14,06,05,0.90
2017,02,14,06,06,0.90
2017,02,14,06,07,0.90
2017,02,14,06,08,0.90
2017,02,14,06,09,0.90
2017,02,14,06,10,0.90
2017,02,14,06,11,0.90
2017,02,14,06,12,0.90
2017,02,14,06,13,0.90
2017,02,14,06,14,0.90
2017,02,14,06,15,0.90
2017,02,14,06,16,0.90
2017,02,14,06,17,0.90
2017,02,14,06,18,1.00
2017,02,14,06,19,1.00
2017,02,14,06,20,1.00
2017,02,14,06,21,1.00
2017,02,14,06,22,1.00
2017,02,14,06,23,1.00
2017,02,14,06,24,1.00
2017,02,14,06,25,1.00
2017,02,14,06,26,1.00
2017,02,14,06,27,1.10
2017,02,14,06,28,1.10
2017,02,14,06,29,1.10
2017,02,14,06,30,1.10
2017,02,14,06,31,1.20
2017,02,14,06,32,1.20
2017,02,14,06,33,1.20
2017,02,14,06,34,1.20
2017,02,14,06,35,1.20
2017,02,14,06,36,1.20
2017,02,14,06,37,1.20
2017,02,14,06,38,1.30
2017,02,14,06,39,1.30
2017,02,14,06,40,1.40
2017,02,14,06,41,1.50
2017,02,14,06,42,1.60
2017,02,14,06,43,1.60
2017,02,14,06,44,1.70
2017,02,14,06,45,1.70
2017,02,14,06,46,1.60
2017,02,14,06,47,1.60
2017,02,14,06,48,1.60
2017,02,14,06,49,1.60
2017,02,14,06,50,1.60
2017,02,14,06,51,1.60
2017,02,14,06,52,1.60
2017,02,14,06,53,1.60
2017,02,14,06,54,1.60
2017,02,14,06,55,1.60
2017,02,14,06,56,1.60
2017,02,14,06,57,1.60
2017,02,14,06,58,1.60
2017,02,14,06,59,1.60
2017,02,14,07,00,1.70
2017,02,14,07,01,1.70
2017,02,14,07,02,1.70
2017,02,14,07,03,1.70
2017,02,14,07,04,1.70
2017,02,14,07,05,1.70
2017,02,14,07,06,1.70
2017,02,14,07,07,1.70
2017,02,14,07,08,1.70
2017,02,14,07,09,1.70
2017,02,14,07,10,1.70
2017,02,14,07,11,1.70
2017,02,14,07,12,1.70
2017,02,14,07,13,1.70
2017,02,14,07,14,1.80
2017,02,14,07,15,1.80
2017,02,14,07,16,1.80
2017,02,14,07,17,1.80
2017,02,14,07,18,1.80
2017,02,14,07,19,1.80
2017,02,14,07,20,1.80
2017,02,14,07,21,1.80
2017,02,14,07,22,1.80
2017,02,14,07,23,1.70
2017,02,14,07,24,1.70
2017,02,14,07,25,1.70
2017,02,14,07,26,1.70
2017,02,14,07,27,1.60
2017,02,14,07,28,1.60
2017,02,14,07,29,1.60
2017,02,14,07,30,1.70
2017,02,14,07,31,1.80
2017,02,14,07,32,1.80
2017,02,14,07,33,1.80
2017,02,14,07,34,1.80
2017,02,14,07,35,1.80
2017,02,14,07,36,1.80
2017,02,14,07,37,1.80
2017,02,14,07,38,1.80
2017,02,14,07,39,1.80
2017,02,14,07,40,1.80
2017,02,14,07,41,1.80
2017,02,14,07,42,1.80
2017,02,14,07,43,1.80
2017,02,14,07,44,1.80
2017,02,14,07,45,1.80
2017,02,14,07,46,1.80
2017,02,14,07,47,1.80
2017,02,14,07,48,1.80
2017,02,14,07,49,1.80
2017,02,14,07,50,1.90
2017,02,14,07,51,1.90
2017,02,14,07,52,1.90
2017,02,14,07,53,1.90
2017,02,14,07,54,1.90
2017,02,14,07,55,1.90
2017,02,14,07,56,1.90
2017,02,14,07,57,1.90
2017,02,14,07,58,1.90
2017,02,14,07,59,1.90
2017,02,14,08,00,1.90
2017,02,14,08,01,1.90
2017,02,14,08,02,1.90
2017,02,14,08,03,1.90
2017,02,14,08,04,1.90
2017,02,14,08,05,1.90
2017,02,14,08,06,1.90
2017,02,14,08,07,1.90
2017,02,14,08,08,1.90
2017,02,14,08,09,1.90
2017,02,14,08,10,1.90
2017,02,14,08,11,2.00
2017,02,14,08,12,2.00
2017,02,14,08,13,2.00
2017,02,14,08,14,2.00
2017,02,14,08,15,2.00
2017,02,14,08,16,2.10
2017,02,14,08,17,2.10
2017,02,14,08,18,2.10
2017,02,14,08,19,2.20
2017,02,14,08,20,2.20
2017,02,14,08,21,2.20
2017,02,14,08,22,2.20
2017,02,14,08,23,2.20
2017,02,14,08,24,2.20
2017,02,14,08,25,2.30
2017,02,14,08,26,2.30
2017,02,14,08,27,2.30
2017,02,14,08,28,2.30
2017,02,14,08,29,2.30
2017,02,14,08,30,2.30
2017,02,14,08,31,2.40
2017,02,14,08,32,2.40
2017,02,14,08,33,2.40
2017,02,14,08,34,2.50
2017,02,14,08,35,2.50
2017,02,14,08,36,2.60
2017,02,14,08,37,2.60
2017,02,14,08,38,2.70
2017,02,14,08,39,2.70
2017,02,14,08,40,2.80
2017,02,14,08,41,2.80
2017,02,14,08,42,2.80
2017,02,14,08,43,2.90
2017,02,14,08,44,2.90
2017,02,14,08,45,3.00
2017,02,14,08,46,3.10
2017,02,14,08,47,3.20
2017,02,14,08,48,3.30
2017,02,14,08,49,3.40
2017,02,14,08,50,3.40
2017,02,14,08,51,3.50
2017,02,14,08,52,3.60
2017,02,14,08,53,3.70
2017,02,14,08,54,3.70
2017,02,14,08,55,3.70
2017,02,14,08,56,3.80
2017,02,14,08,57,3.80
2017,02,14,08,58,3.80
2017,02,14,08,59,3.80
2017,02,14,09,00,3.80
2017,02,14,09,01,3.80
2017,02,14,09,02,3.90
2017,02,14,09,03,3.90
2017,02,14,09,04,4.00
2017,02,14,09,05,4.00
2017,02,14,09,06,4.10
2017,02,14,09,07,4.10
2017,02,14,09,08,4.20
2017,02,14,09,09,4.20
2017,02,14,09,10,4.20
2017,02,14,09,11,4.20
2017,02,14,09,12,4.30
2017,02,14,09,13,4.30
2017,02,14,09,14,4.20
2017,02,14,09,15,4.20
2017,02,14,09,16,4.20
2017,02,14,09,17,4.20
2017,02,14,09,18,4.20
2017,02,14,09,19,4.30
2017,02,14,09,20,4.30
2017,02,14,09,21,4.30
2017,02,14,09,22,4.30
2017,02,14,09,23,4.30
2017,02,14,09,24,4.30
2017,02,14,09,25,4.20
2017,02,14,09,26,4.20
2017,02,14,09,27,4.20
2017,02,14,09,28,4.10
2017,02,14,09,29,4.10
2017,02,14,09,30,4.10
2017,02,14,09,31,4.10
2017,02,14,09,32,4.20
2017,02,14,09,33,4.20
2017,02,14,09,34,4.20
2017,02,14,09,35,4.20
2017,02,14,09,36,4.20
2017,02,14,09,37,4.30
2017,02,14,09,38,4.30
2017,02,14,09,39,4.30
2017,02,14,09,40,4.30
2017,02,14,09,41,4.30
2017,02,14,09,42,4.30
2017,02,14,09,43,4.30
2017,02,14,09,44,4.30
2017,02,14,09,45,4.30
2017,02,14,09,46,4.40
2017,02,14,09,47,4.40
2017,02,14,09,48,4.40
2017,02,14,09,49,4.40
2017,02,14,09,50,4.50
2017,02,14,09,51,4.50
2017,02,14,09,52,4.60
2017,02,14,09,53,4.60
2017,02,14,09,54,4.70
2017,02,14,09,55,4.70
2017,02,14,09,56,4.80
2017,02,14,09,57,4.80
2017,02,14,09,58,4.80
2017,02,14,09,59,4.80
2017,02,14,10,00,4.80
2017,02,14,10,01,4.80
2017,02,14,10,02,4.90
2017,02,14,10,03,4.90
2017,02,14,10,04,5.00
2017,02,14,10,05,5.10
2017,02,14,10,06,5.20
2017,02,14,10,07,5.20
2017,02,14,10,08,5.30
2017,02,14,10,09,5.30
2017,02,14,10,10,5.30
2017,02,14,10,11,5.40
2017,02,14,10,12,5.40
2017,02,14,10,13,5.50
2017,02,14,10,14,5.50
2017,02,14,10,15,5.60
2017,02,14,10,16,5.70
2017,02,14,10,17,5.80
2017,02,14,10,18,5.90
2017,02,14,10,19,6.00
2017,02,14,10,20,6.10
2017,02,14,10,21,6.30
2017,02,14,10,22,6.50
2017,02,14,10,23,6.70
2017,02,14,10,24,7.00
2017,02,14,10,25,7.10
2017,02,14,10,26,7.30
2017,02,14,10,27,7.40
2017,02,14,10,28,7.60
2017,02,14,10,29,7.70
2017,02,14,10,30,7.80
2017,02,14,10,31,7.90
2017,02,14,10,32,8.00
2017,02,14,10,33,8.20
2017,02,14,10,34,8.30
2017,02,14,10,35,8.40
2017,02,14,10,36,8.50
2017,02,14,10,37,8.60
2017,02,14,10,38,8.70
2017,02,14,10,39,8.70
2017,02,14,10,40,8.80
2017,02,14,10,41,8.80
2017,02,14,10,42,8.90
2017,02,14,10,43,8.90
2017,02,14,10,44,9.00
2017,02,14,10,45,9.00
2017,02,14,10,46,9.10
2017,02,14,10,47,9.10
2017,02,14,10,48,9.10
2017,02,14,10,49,9.20
2017,02,14,10,50,9.20
2017,02,14,10,51,9.20
2017,02,14,10,52,9.20
2017,02,14,10,53,9.20
2017,02,14,10,54,9.20
2017,02,14,10,55,9.20
2017,02,14,10,56,9.20
2017,02,14,10,57,9.20
2017,02,14,10,58,9.20
2017,02,14,10,59,9.20
2017,02,14,11,00,9.20
2017,02,14,11,01,9.20
2017,02,14,11,02,9.20
2017,02,14,11,03,9.20
2017,02,14,11,04,9.20
2017,02,14,11,05,9.30
2017,02,14,11,06,9.30
2017,02,14,11,07,9.30
2017,02,14,11,08,9.30
2017,02,14,11,09,9.30
2017,02,14,11,10,9.40
2017,02,14,11,11,9.40
2017,02,14,11,12,9.40
2017,02,14,11,13,9.40
2017,02,14,11,14,9.50
2017,02,14,11,15,9.50
2017,02,14,11,16,9.50
2017,02,14,11,17,9.60
2017,02,14,11,18,9.60
2017,02,14,11,19,9.60
2017,02,14,11,20,9.60
2017,02,14,11,21,9.60
2017,02,14,11,22,9.60
2017,02,14,11,23,9.60
2017,02,14,11,24,9.60
2017,02,14,11,25,9.60
2017,02,14,11,26,9.60
2017,02,14,11,27,9.60
2017,02,14,11,28,9.60
2017,02,14,11,29,9.60
2017,02,14,11,30,9.50
2017,02,14,11,31,9.50
2017,02,14,11,32,9.50
2017,02,14,11,33,9.50
2017,02,14,11,34,9.50
2017,02,14,11,35,9.50
2017,02,14,11,36,9.50
2017,02,14,11,37,9.60
2017,02,14,11,38,9.60
2017,02,14,11,39,9.60
2017,02,14,11,40,9.70
2017,02,14,11,41,9.70
2017,02,14,11,42,9.70
2017,02,14,11,43,9.80
2017,02,14,11,44,9.80
2017,02,14,11,45,9.80
2017,02,14,11,46,9.80
2017,02,14,11,47,9.90
2017,02,14,11,48,9.90
2017,02,14,11,49,9.90
2017,02,14,11,50,10.00
2017,02,14,11,51,10.00
2017,02,14,11,52,10.00
2017,02,14,11,53,10.10
2017,02,14,11,54,10.10
2017,02,14,11,55,10.10
2017,02,14,11,56,10.10
2017,02,14,11,57,10.10
2017,02,14,11,58,10.20
2017,02,14,11,59,10.20
2017,02,14,12,00,10.20
2017,02,14,12,01,10.30
2017,02,14,12,02,10.30
2017,02,14,12,03,10.30
2017,02,14,12,04,10.30
2017,02,14,12,05,10.40
2017,02,14,12,06,10.40
2017,02,14,12,07,10.40
2017,02,14,12,08,10.40
2017,02,14,12,09,10.40
2017,02,14,12,10,10.40
2017,02,14,12,11,10.50
2017,02,14,12,12,10.50
2017,02,14,12,13,10.50
2017,02,14,12,14,10.50
2017,02,14,12,15,10.50
2017,02,14,12,16,10.50
2017,02,14,12,17,10.50
2017,02,14,12,18,10.50
2017,02,14,12,19,10.50
2017,02,14,12,20,10.60
2017,02,14,12,21,10.60
2017,02,14,12,22,10.60
2017,02,14,12,23,10.60
2017,02,14,12,24,10.50
2017,02,14,12,25,10.50
2017,02,14,12,26,10.50
2017,02,14,12,27,10.50
2017,02,14,12,28,10.50
2017,02,14,12,29,10.50
2017,02,14,12,30,10.50
2017,02,14,12,31,10.40
2017,02,14,12,32,10.40
2017,02,14,12,33,10.40
2017,02,14,12,34,10.40
2017,02,14,12,35,10.40
2017,02,14,12,36,10.40
2017,02,14,12,37,10.40
2017,02,14,12,38,10.40
2017,02,14,12,39,10.40
2017,02,14,12,40,10.40
2017,02,14,12,41,10.40
2017,02,14,12,42,10.40
2017,02,14,12,43,10.50
2017,02,14,12,44,10.50
2017,02,14,12,45,10.50
2017,02,14,12,46,10.40
2017,02,14,12,47,10.40
2017,02,14,12,48,10.40
2017,02,14,12,49,10.40
2017,02,14,12,50,10.40
2017,02,14,12,51,10.40
2017,02,14,12,52,10.40
2017,02,14,12,53,10.40
2017,02,14,12,54,10.40
2017,02,14,12,55,10.40
2017,02,14,12,56,10.40
2017,02,14,12,57,10.40
2017,02,14,12,58,10.40
2017,02,14,12,59,10.40
2017,02,14,13,00,10.30
2017,02,14,13,01,10.30
2017,02,14,13,02,10.30
2017,02,14,13,03,10.30
2017,02,14,13,04,10.20
2017,02,14,13,05,10.20
2017,02,14,13,06,10.20
2017,02,14,13,07,10.20
2017,02,14,13,08,10.20
2017,02,14,13,09,10.20
2017,02,14,13,10,10.20
2017,02,14,13,11,10.20
2017,02,14,13,12,10.20
2017,02,14,13,13,10.20
2017,02,14,13,14,10.20
2017,02,14,13,15,10.20
2017,02,14,13,16,10.30
2017,02,14,13,17,10.30
2017,02,14,13,18,10.30
2017,02,14,13,19,10.30
2017,02,14,13,20,10.30
2017,02,14,13,21,10.40
2017,02,14,13,22,10.40
2017,02,14,13,23,10.40
2017,02,14,13,24,10.40
2017,02,14,13,25,10.40
2017,02,14,13,26,10.40
2017,02,14,13,27,10.40
2017,02,14,13,28,10.40
2017,02,14,13,29,10.40
2017,02,14,13,30,10.40
2017,02,14,13,31,10.40
2017,02,14,13,32,10.40
2017,02,14,13,33,10.30
2017,02,14,13,34,10.30
2017,02,14,13,35,10.30
2017,02,14,13,36,10.30
2017,02,14,13,37,10.30
2017,02,14,13,38,10.30
2017,02,14,13,39,10.30
2017,02,14,13,40,10.30
2017,02,14,13,41,10.30
2017,02,14,13,42,10.30
2017,02,14,13,43,10.30
2017,02,14,13,44,10.20
2017,02,14,13,45,10.20
2017,02,14,13,46,10.10
2017,02,14,13,47,10.00
2017,02,14,13,48,10.00
2017,02,14,13,49,9.90
2017,02,14,13,50,9.90
2017,02,14,13,51,9.80
2017,02,14,13,52,9.80
2017,02,14,13,53,9.80
2017,02,14,13,54,9.80
2017,02,14,13,55,9.70
2017,02,14,13,56,9.70
2017,02,14,13,57,9.70
2017,02,14,13,58,9.70
2017,02,14,13,59,9.60
2017,02,14,14,00,9.60
2017,02,14,14,01,9.60
2017,02,14,14,02,9.60
2017,02,14,14,03,9.60
2017,02,14,14,04,9.60
2017,02,14,14,05,9.60
2017,02,14,14,06,9.60
2017,02,14,14,07,9.60
2017,02,14,14,08,9.60
2017,02,14,14,09,9.70
2017,02,14,14,10,9.70
2017,02,14,14,11,9.70
2017,02,14,14,12,9.70
2017,02,14,14,13,9.70
2017,02,14,14,14,9.80
2017,02,14,14,15,9.80
2017,02,14,14,16,9.80
2017,02,14,14,17,9.80
2017,02,14,14,18,9.80
2017,02,14,14,19,9.80
2017,02,14,14,20,9.80
2017,02,14,14,21,9.80
2017,02,14,14,22,9.80
2017,02,14,14,23,9.70
2017,02,14,14,24,9.70
2017,02,14,14,25,9.70
2017,02,14,14,26,9.70
2017,02,14,14,27,9.70
2017,02,14,14,28,9.70
2017,02,14,14,29,9.70
2017,02,14,14,30,9.70
2017,02,14,14,31,9.70
2017,02,14,14,32,9.70
2017,02,14,14,33,9.70
2017,02,14,14,34,9.80
2017,02,14,14,35,9.80
2017,02,14,14,36,9.80
2017,02,14,14,37,9.80
2017,02,14,14,38,9.70
2017,02,14,14,39,9.70
2017,02,14,14,40,9.70
2017,02,14,14,41,9.70
2017,02,14,14,42,9.60
2017,02,14,14,43,9.60
2017,02,14,14,44,9.50
2017,02,14,14,45,9.50
2017,02,14,14,46,9.40
2017,02,14,14,47,9.30
2017,02,14,14,48,9.30
2017,02,14,14,49,9.20
2017,02,14,14,50,9.10
2017,02,14,14,51,9.10
2017,02,14,14,52,9.10
2017,02,14,14,53,9.00
2017,02,14,14,54,9.00
2017,02,14,14,55,9.00
2017,02,14,14,56,9.00
2017,02,14,14,57,9.00
2017,02,14,14,58,9.00
2017,02,14,14,59,9.10
2017,02,14,15,00,9.10
2017,02,14,15,01,9.10
2017,02,14,15,02,9.10
2017,02,14,15,03,9.10
2017,02,14,15,04,9.10
2017,02,14,15,05,9.10
2017,02,14,15,06,9.10
2017,02,14,15,07,9.20
2017,02,14,15,08,9.20
2017,02,14,15,09,9.10
2017,02,14,15,10,9.10
2017,02,14,15,11,9.10
2017,02,14,15,12,9.10
2017,02,14,15,13,9.10
2017,02,14,15,14,9.10
2017,02,14,15,15,9.10
2017,02,14,15,16,9.10
2017,02,14,15,17,9.00
2017,02,14,15,18,9.00
2017,02,14,15,19,9.00
2017,02,14,15,20,9.00
2017,02,14,15,21,8.90
2017,02,14,15,22,8.90
2017,02,14,15,23,8.90
2017,02,14,15,24,8.90
2017,02,14,15,25,8.90
2017,02,14,15,26,8.90
2017,02,14,15,27,8.90
2017,02,14,15,28,8.90
2017,02,14,15,29,8.90
2017,02,14,15,30,8.90
2017,02,14,15,31,8.90
2017,02,14,15,32,8.90
2017,02,14,15,33,8.90
2017,02,14,15,34,8.80
2017,02,14,15,35,8.80
2017,02,14,15,36,8.80
2017,02,14,15,37,8.80
2017,02,14,15,38,8.70
2017,02,14,15,39,8.70
2017,02,14,15,40,8.60
2017,02,14,15,41,8.60
2017,02,14,15,42,8.60
2017,02,14,15,43,8.60
2017,02,14,15,44,8.60
2017,02,14,15,45,8.60
2017,02,14,15,46,8.60
2017,02,14,15,47,8.60
2017,02,14,15,48,8.60
2017,02,14,15,49,8.60
2017,02,14,15,50,8.60
2017,02,14,15,51,8.60
2017,02,14,15,52,8.60
2017,02,14,15,53,8.60
2017,02,14,15,54,8.50
2017,02,14,15,55,8.50
2017,02,14,15,56,8.50
2017,02,14,15,57,8.50
2017,02,14,15,58,8.50
2017,02,14,15,59,8.40
2017,02,14,16,00,8.40
2017,02,14,16,01,8.40
2017,02,14,16,02,8.30
2017,02,14,16,03,8.30
2017,02,14,16,04,8.30
2017,02,14,16,05,8.30
2017,02,14,16,06,8.20
2017,02,14,16,07,8.20
2017,02,14,16,08,8.10
2017,02,14,16,09,8.10
2017,02,14,16,10,8.10
2017,02,14,16,11,8.00
2017,02,14,16,12,8.00
2017,02,14,16,13,8.00
2017,02,14,16,14,7.90
2017,02,14,16,15,7.90
2017,02,14,16,16,7.90
2017,02,14,16,17,7.80
2017,02,14,16,18,7.80
2017,02,14,16,19,7.80
2017,02,14,16,20,7.80
2017,02,14,16,21,7.80
2017,02,14,16,22,7.80
2017,02,14,16,23,7.80
2017,02,14,16,24,7.70
2017,02,14,16,25,7.70
2017,02,14,16,26,7.70
2017,02,14,16,27,7.70
2017,02,14,16,28,7.70
2017,02,14,16,29,7.60
2017,02,14,16,30,7.60
2017,02,14,16,31,7.60
2017,02,14,16,32,7.60
2017,02,14,16,33,7.60
2017,02,14,16,34,7.60
2017,02,14,16,35,7.60
2017,02,14,16,36,7.60
2017,02,14,16,37,7.50
2017,02,14,16,38,7.50
2017,02,14,16,39,7.50
2017,02,14,16,40,7.40
2017,02,14,16,41,7.40
2017,02,14,16,42,7.40
2017,02,14,16,43,7.40
2017,02,14,16,44,7.30
2017,02,14,16,45,7.30
2017,02,14,16,46,7.30
2017,02,14,16,47,7.30
2017,02,14,16,48,7.30
2017,02,14,16,49,7.20
2017,02,14,16,50,7.20
2017,02,14,16,51,7.20
2017,02,14,16,52,7.10
2017,02,14,16,53,7.10
2017,02,14,16,54,7.00
2017,02,14,16,55,7.00
2017,02,14,16,56,6.90
2017,02,14,16,57,6.90
2017,02,14,16,58,6.80
2017,02,14,16,59,6.80
2017,02,14,17,00,6.70
2017,02,14,17,01,6.70
2017,02,14,17,02,6.70
2017,02,14,17,03,6.60
2017,02,14,17,04,6.60
2017,02,14,17,05,6.60
2017,02,14,17,06,6.60
2017,02,14,17,07,6.60
2017,02,14,17,08,6.60
2017,02,14,17,09,6.50
2017,02,14,17,10,6.50
2017,02,14,17,11,6.50
2017,02,14,17,12,6.50
2017,02,14,17,13,6.40
2017,02,14,17,14,6.40
2017,02,14,17,15,6.40
2017,02,14,17,16,6.40
2017,02,14,17,17,6.40
2017,02,14,17,18,6.40
2017,02,14,17,19,6.40
2017,02,14,17,20,6.30
2017,02,14,17,21,6.30
2017,02,14,17,22,6.30
2017,02,14,17,23,6.30
2017,02,14,17,24,6.30
2017,02,14,17,25,6.30
2017,02,14,17,26,6.30
2017,02,14,17,27,6.30
2017,02,14,17,28,6.20
2017,02,14,17,29,6.20
2017,02,14,17,30,6.20
2017,02,14,17,31,6.20
2017,02,14,17,32,6.20
2017,02,14,17,33,6.20
2017,02,14,17,34,6.20
2017,02,14,17,35,6.10
2017,02,14,17,36,6.10
2017,02,14,17,37,6.00
2017,02,14,17,38,6.00
2017,02,14,17,39,5.90
2017,02,14,17,40,5.90
2017,02,14,17,41,5.90
2017,02,14,17,42,5.90
2017,02,14,17,43,5.90
2017,02,14,17,44,5.80
2017,02,14,17,45,5.80
2017,02,14,17,46,5.80
2017,02,14,17,47,5.80
2017,02,14,17,48,5.80
2017,02,14,17,49,5.70
2017,02,14,17,50,5.70
2017,02,14,17,51,5.70
2017,02,14,17,52,5.70
2017,02,14,17,53,5.70
2017,02,14,17,54,5.70
2017,02,14,17,55,5.70
2017,02,14,17,56,5.70
2017,02,14,17,57,5.70
2017,02,14,17,58,5.70
2017,02,14,17,59,5.70
2017,02,14,18,00,5.60
2017,02,14,18,01,5.60